GW7738 Weather Reports


time (UTC)temp
C
wind
direction
speed
KPH
gust
KPH
rain 1hr
cm
rain 24hr
cm
rain mn
cm
humidity
%
barometer
mb
20260902141236 30 195 0.0 4.8 0.00 0.00 0.00 72 1020.3
20260902140735 30 73 3.2 4.8 0.00 0.00 0.00 69 1020.3
20260902140236 30 87 1.6 4.8 0.00 0.00 0.00 69 1020.3
20260902135735 30 94 3.2 3.2 0.00 0.00 0.00 66 1020.3
20260902135235 30 88 0.0 3.2 0.00 0.00 0.00 66 1020.3
20260902134735 30 133 0.0 4.8 0.00 0.00 0.00 71 1020.0
20260902134236 29 269 0.0 4.8 0.00 0.00 0.00 69 1020.3
20260902133735 29 58 3.2 3.2 0.00 0.00 0.00 70 1020.3
20260902133236 28 129 0.0 3.2 0.00 0.00 0.00 74 1020.3
20260902132735 28 269 0.0 3.2 0.00 0.00 0.00 73 1020.0
20260902132236 28 66 0.0 3.2 0.00 0.00 0.00 73 1020.3
20260902131735 28 164 0.0 3.2 0.00 0.00 0.00 75 1020.3
20260902131235 27 103 0.0 1.6 0.00 0.00 0.00 78 1020.3
20260902130735 27 104 0.0 3.2 0.00 0.00 0.00 79 1020.0
20260902130236 27 180 0.0 3.2 0.00 0.00 0.00 78 1020.3
20260902125735 26 173 0.0 3.2 0.00 0.00 0.00 82 1020.3
20260902125235 25 89 0.0 3.2 0.00 0.00 0.00 84 1020.0
20260902124735 25 235 1.6 3.2 0.00 0.00 0.00 82 1020.0
20260902124235 25 212 0.0 1.6 0.00 0.00 0.00 85 1020.0
20260902123735 24 135 0.0 1.6 0.00 0.00 0.00 87 1020.0
20260902123235 23 293 0.0 1.6 0.00 0.00 0.00 88 1020.0
20260902122735 23 235 0.0 1.6 0.00 0.00 0.00 88 1020.0
20260902122235 23 315 0.0 1.6 0.00 0.00 0.00 89 1020.0
20260902121735 22 116 0.0 1.6 0.00 0.00 0.00 90 1020.0
20260902121235 22 81 0.0 1.6 0.00 0.00 0.00 93 1020.0
20260902120735 21 242 0.0 1.6 0.00 0.00 0.00 94 1019.6
20260902120235 21 257 0.0 0.0 0.00 0.00 0.00 96 1019.6
20260902115735 21 269 0.0 0.0 0.00 0.00 0.00 96 1019.6
20260902115235 21 113 0.0 1.6 0.00 0.00 0.00 96 1019.6
20260902114735 21 135 0.0 1.6 0.00 0.00 0.00 96 1019.6
20260902114235 20 142 0.0 1.6 0.00 0.00 0.00 97 1019.6
20260902113735 20 299 0.0 1.6 0.00 0.00 0.00 97 1019.3
20260902113235 20 37 0.0 0.0 0.00 0.00 0.00 97 1019.3
20260902112735 20 37 0.0 1.6 0.00 0.00 0.00 97 1019.3
20260902112235 20 129 0.0 1.6 0.00 0.00 0.00 97 1019.3
20260902111735 20 122 0.0 1.6 0.00 0.00 0.00 97 1019.3
20260902111235 20 89 0.0 1.6 0.00 0.00 0.00 96 1019.3
20260902110735 20 117 0.0 1.6 0.00 0.00 0.00 96 1019.3
20260902110235 20 269 0.0 1.6 0.00 0.00 0.00 96 1019.3
20260902105735 20 269 0.0 1.6 0.00 0.00 0.00 96 1018.9
20260902105235 21 124 0.0 1.6 0.00 0.00 0.00 96 1018.6
20260902104736 20 237 0.0 1.6 0.00 0.00 0.00 96 1018.9
20260902104234 21 284 0.0 1.6 0.00 0.00 0.00 96 1018.6
20260902103735 21 129 0.0 1.6 0.00 0.00 0.00 96 1018.6
20260902103235 21 69 0.0 3.2 0.00 0.00 0.00 96 1018.9
20260902102735 20 47 0.0 3.2 0.00 0.00 0.00 96 1018.6
20260902102235 20 247 0.0 3.2 0.00 0.00 0.00 97 1018.9
20260902101735 20 282 0.0 0.0 0.00 0.00 0.00 96 1018.6
20260902101235 20 63 0.0 0.0 0.00 0.00 0.00 96 1018.6
20260902100735 21 217 0.0 1.6 0.00 0.00 0.00 96 1018.6
20260902100235 21 217 0.0 1.6 0.00 0.00 0.00 96 1018.6
20260902095735 21 113 0.0 0.0 0.00 0.00 0.00 96 1018.6
20260902095235 21 89 0.0 0.0 0.00 0.00 0.00 95 1018.6
20260902094735 21 89 0.0 0.0 0.00 0.00 0.00 95 1018.2
20260902094235 21 89 0.0 1.6 0.00 0.00 0.00 95 1018.6
20260902093735 21 89 0.0 3.2 0.00 0.00 0.00 95 1018.6
20260902093235 21 50 0.0 3.2 0.00 0.00 0.00 94 1018.2
20260902092735 21 101 0.0 3.2 0.00 0.00 0.00 94 1018.2
20260902092235 21 242 0.0 1.6 0.00 0.00 0.00 95 1018.2
20260902091735 21 230 0.0 1.6 0.00 0.00 0.00 95 1018.2
20260902091235 21 242 0.0 0.0 0.00 0.00 0.00 94 1018.2
20260902090735 21 115 0.0 1.6 0.00 0.00 0.00 94 1018.6
20260902090234 21 135 0.0 1.6 0.00 0.00 0.00 94 1018.2
20260902085735 21 304 0.0 1.6 0.00 0.00 0.00 94 1018.2
20260902085235 21 309 0.0 0.0 0.00 0.00 0.00 94 1018.2
20260902084735 21 240 0.0 0.0 0.00 0.00 0.00 93 1018.2
20260902084235 21 124 0.0 0.0 0.00 0.00 0.00 93 1018.2
20260902083735 21 339 0.0 0.0 0.00 0.00 0.00 94 1018.2
20260902083235 21 217 0.0 0.0 0.00 0.00 0.00 94 1017.9
20260902082736 21 135 0.0 0.0 0.00 0.00 0.00 94 1018.2
20260902082235 21 218 0.0 1.6 0.00 0.00 0.00 94 1018.2
20260902081735 21 224 0.0 1.6 0.00 0.00 0.00 94 1018.2
20260902081235 21 309 0.0 1.6 0.00 0.00 0.00 94 1018.2
20260902080735 21 62 0.0 1.6 0.00 0.00 0.00 94 1018.2
20260902080235 21 269 0.0 0.0 0.00 0.00 0.00 94 1018.2
20260902075735 21 113 0.0 0.0 0.00 0.00 0.00 93 1017.9
20260902075235 21 104 0.0 1.6 0.00 0.00 0.00 94 1017.9
20260902074735 21 257 0.0 1.6 0.00 0.00 0.00 93 1018.2
20260902074235 21 135 0.0 3.2 0.00 0.00 0.00 93 1018.2
20260902073735 21 44 0.0 3.2 0.00 0.00 0.00 93 1018.2
20260902073235 21 85 3.2 3.2 0.00 0.00 0.00 93 1018.2
20260902072734 21 89 0.0 3.2 0.00 0.00 0.00 92 1018.2
20260902072235 21 280 0.0 3.2 0.00 0.00 0.00 92 1018.2
20260902071735 21 269 0.0 0.0 0.00 0.00 0.00 93 1018.2
20260902071235 21 255 0.0 0.0 0.00 0.00 0.00 93 1018.2
20260902070735 21 102 0.0 0.0 0.00 0.00 0.00 93 1018.2
20260902070235 21 135 0.0 1.6 0.00 0.00 0.00 93 1018.2
20260902065735 21 124 0.0 1.6 0.00 0.00 0.00 92 1018.2
20260902065235 21 75 0.0 1.6 0.00 0.00 0.00 93 1018.2
20260902064735 21 117 0.0 1.6 0.00 0.00 0.00 92 1018.2
20260902064235 21 89 0.0 1.6 0.00 0.00 0.00 91 1018.2
20260902063735 22 135 0.0 1.6 0.00 0.00 0.00 90 1018.2
20260902063235 22 230 0.0 1.6 0.00 0.00 0.00 89 1018.2
20260902062734 22 212 0.0 1.6 0.00 0.00 0.00 89 1018.2
20260902062235 22 135 0.0 3.2 0.00 0.00 0.00 86 1018.2
20260902061735 22 88 0.0 3.2 0.00 0.00 0.00 85 1018.6
20260902061234 22 224 0.0 1.6 0.00 0.00 0.00 85 1018.2
20260902060735 22 195 0.0 1.6 0.00 0.00 0.00 85 1018.2
20260902060235 22 116 0.0 1.6 0.00 0.00 0.00 86 1018.2
20260902055735 22 183 0.0 1.6 0.00 0.00 0.00 87 1018.2
20260902055235 22 336 0.0 1.6 0.00 0.00 0.00 88 1018.2
20260902054735 22 230 0.0 1.6 0.00 0.00 0.00 90 1018.2
20260902054234 22 333 0.0 1.6 0.00 0.00 0.00 92 1018.2
20260902053735 22 284 0.0 1.6 0.00 0.00 0.00 92 1018.6
20260902053235 22 230 0.0 0.0 0.00 0.00 0.00 91 1018.2
20260902052735 22 68 0.0 0.0 0.00 0.00 0.00 91 1018.2
20260902052235 22 117 0.0 0.0 0.00 0.00 0.00 91 1018.2
20260902051735 22 229 0.0 0.0 0.00 0.00 0.00 90 1018.2
20260902051235 22 62 0.0 1.6 0.00 0.00 0.00 90 1018.2
20260902050735 22 154 0.0 3.2 0.00 0.00 0.00 90 1018.2
20260902050235 22 309 0.0 3.2 0.00 0.00 0.00 89 1018.6
20260902045734 22 94 3.2 3.2 0.00 0.00 0.00 88 1018.6
20260902045236 22 81 1.6 3.2 0.00 0.00 0.00 86 1018.6
20260902044735 22 135 0.0 1.6 0.00 0.00 0.00 87 1018.2
20260902044235 22 224 0.0 1.6 0.00 0.00 0.00 88 1018.2
20260902043735 22 242 0.0 1.6 0.00 0.00 0.00 89 1018.2
20260902043235 22 284 0.0 1.6 0.00 0.00 0.00 90 1018.6
20260902042735 22 269 0.0 1.6 0.00 0.00 0.00 90 1018.2
20260902042235 22 224 0.0 0.0 0.00 0.00 0.00 90 1018.6
20260902041735 22 142 0.0 1.6 0.00 0.00 0.00 90 1018.6
20260902041235 22 290 0.0 1.6 0.00 0.00 0.00 91 1018.6
20260902040735 22 135 0.0 0.0 0.00 0.00 0.00 91 1018.6
20260902040235 22 108 0.0 0.0 0.00 0.00 0.00 90 1018.6
20260902035735 22 315 0.0 0.0 0.00 0.00 0.00 90 1018.6
20260902035234 22 135 0.0 0.0 0.00 0.00 0.00 89 1018.6
20260902034735 22 142 0.0 0.0 0.00 0.00 0.00 90 1018.6
20260902034235 23 230 0.0 0.0 0.00 0.00 0.00 89 1018.6
20260902033735 23 130 0.0 0.0 0.00 0.00 0.00 89 1018.9
20260902033234 23 309 0.0 1.6 0.00 0.00 0.00 88 1018.9
20260902032734 23 80 0.0 1.6 0.00 0.00 0.00 87 1018.9
20260902032235 23 101 0.0 1.6 0.00 0.00 0.00 88 1018.6
20260902031735 23 297 0.0 1.6 0.00 0.00 0.00 87 1018.6
20260902031235 23 44 0.0 1.6 0.00 0.00 0.00 88 1018.6
20260902030735 23 124 0.0 0.0 0.00 0.00 0.00 87 1018.6
20260902030235 23 269 0.0 1.6 0.00 0.00 0.00 85 1018.6
20260902025735 23 89 0.0 1.6 0.00 0.00 0.00 86 1018.6
20260902025235 23 135 0.0 1.6 0.00 0.00 0.00 84 1018.6
20260902024735 24 142 0.0 1.6 0.00 0.00 0.00 84 1018.6
20260902024235 24 75 0.0 1.6 0.00 0.00 0.00 86 1018.6
20260902023735 24 230 0.0 1.6 0.00 0.00 0.00 86 1018.6
20260902023234 24 128 1.6 1.6 0.00 0.00 0.00 85 1018.6
20260902022735 24 224 0.0 1.6 0.00 0.00 0.00 85 1018.6
20260902022235 25 304 0.0 1.6 0.00 0.00 0.00 86 1018.6
20260902021734 25 315 0.0 1.6 0.00 0.00 0.00 86 1018.2
20260902021235 25 119 0.0 1.6 0.00 0.00 0.00 86 1018.6
20260902020735 25 75 0.0 0.0 0.00 0.00 0.00 86 1018.2
20260902020235 25 135 0.0 1.6 0.00 0.00 0.00 86 1018.2
20260902015735 25 135 0.0 1.6 0.00 0.00 0.00 86 1018.2
20260902015234 25 122 1.6 1.6 0.00 0.00 0.00 85 1018.2
20260902014735 25 135 0.0 1.6 0.00 0.00 0.00 85 1018.2
20260902014235 25 135 0.0 0.0 0.00 0.00 0.00 85 1018.2
20260902013735 25 217 0.0 3.2 0.00 0.00 0.00 84 1018.2
20260902013235 25 117 0.0 3.2 0.00 0.00 0.00 84 1018.2
20260902012734 25 89 0.0 3.2 0.00 0.00 0.00 82 1018.2
20260902012235 26 103 0.0 1.6 0.00 0.00 0.00 83 1018.2
20260902011735 26 135 0.0 1.6 0.00 0.00 0.00 83 1017.9
20260902011235 26 75 0.0 1.6 0.00 0.00 0.00 82 1017.9
20260902010735 26 224 0.0 1.6 0.00 0.00 0.00 82 1017.9
20260902010235 26 206 0.0 1.6 0.00 0.00 0.00 81 1017.9
20260902005734 26 269 0.0 0.0 0.00 0.00 0.00 82 1017.9
20260902005235 26 224 0.0 0.0 0.00 0.00 0.00 83 1017.9
20260902004734 26 124 0.0 1.6 0.00 0.00 0.00 84 1017.9
20260902004234 26 120 0.0 1.6 0.00 0.00 0.00 84 1017.9
20260902003734 26 115 0.0 1.6 0.00 0.00 0.00 83 1017.5
20260902003235 27 103 0.0 1.6 0.00 0.00 0.00 81 1017.9
20260902002735 27 235 0.0 0.0 0.00 0.00 0.00 80 1017.9
20260902002235 27 230 0.0 0.0 0.00 0.00 0.00 80 1017.5
20260902001735 27 44 0.0 0.0 0.00 0.00 0.00 79 1017.9
20260902001234 27 44 0.0 1.6 0.00 0.00 0.00 78 1017.9
20260902000735 28 103 0.0 1.6 0.00 0.00 0.00 76 1017.9
20260902000234 28 129 0.0 1.6 0.00 0.00 0.00 73 1017.5
20260901235735 29 135 0.0 0.0 0.00 0.00 0.00 71 1017.9
20260901235234 30 117 0.0 0.0 0.00 0.00 0.00 70 1017.9
20260901234734 30 137 0.0 0.0 0.00 0.00 0.00 67 1017.9
20260901234235 30 44 0.0 0.0 0.00 0.00 0.00 65 1017.9
20260901233735 31 44 0.0 0.0 0.00 0.00 0.00 63 1017.9
20260901233235 31 44 0.0 0.0 0.00 0.00 0.00 61 1017.9
20260901232735 31 309 0.0 1.6 0.00 0.00 0.00 60 1018.2
20260901232235 32 113 0.0 1.6 0.00 0.00 0.00 60 1017.9
20260901231735 33 117 0.0 0.0 0.00 0.00 0.00 57 1017.9
20260901231235 33 62 0.0 1.6 0.00 0.00 0.00 57 1017.9
20260901230735 33 50 0.0 1.6 0.00 0.00 0.00 57 1017.9
20260901230235 33 50 0.0 1.6 0.00 0.00 0.00 57 1018.2
20260901225735 33 142 0.0 1.6 0.00 0.00 0.00 56 1017.9
20260901225234 33 217 0.0 0.0 0.00 0.00 0.00 56 1018.2
20260901224735 33 217 0.0 3.2 0.00 0.00 0.00 56 1017.9
20260901224234 33 242 0.0 3.2 0.00 0.00 0.00 56 1017.9
20260901223734 33 69 0.0 4.8 0.00 0.00 0.00 56 1017.9
20260901223235 33 62 0.0 4.8 0.00 0.00 0.00 54 1017.9
20260901222735 33 44 0.0 4.8 0.00 0.00 0.00 54 1017.9
20260901222235 33 135 0.0 4.8 0.00 0.00 0.00 51 1017.9
20260901221735 33 195 0.0 4.8 0.00 0.00 0.00 49 1017.9
20260901221234 33 207 0.0 3.2 0.00 0.00 0.00 52 1017.9
20260901220735 33 124 0.0 3.2 0.00 0.00 0.00 50 1017.9
20260901220235 33 6 0.0 3.2 0.00 0.00 0.00 50 1018.2
20260901215735 33 203 0.0 3.2 0.00 0.00 0.00 48 1017.9
20260901215235 33 197 0.0 4.8 0.00 0.00 0.00 46 1017.9
20260901214735 33 69 0.0 4.8 0.00 0.00 0.00 48 1017.9
20260901214235 33 235 3.2 3.2 0.00 0.00 0.00 45 1018.2
20260901213735 33 66 0.0 4.8 0.00 0.00 0.00 44 1017.9
20260901213235 33 116 0.0 6.4 0.00 0.00 0.00 46 1017.9
20260901212734 33 91 4.8 11.3 0.00 0.00 0.00 44 1018.2
20260901212235 33 94 4.8 11.3 0.00 0.00 0.00 47 1017.9
20260901211712 33 76 8.0 8.0 0.00 0.00 0.00 44 1018.2
20260901211211 33 79 8.0 8.0 0.00 0.00 0.00 46 1017.9
20260901210711 33 97 4.8 8.0 0.00 0.00 0.00 46 1017.9
20260901210212 33 89 4.8 11.3 0.00 0.00 0.00 47 1018.2
20260901205711 33 51 6.4 11.3 0.00 0.00 0.00 46 1017.9
20260901205212 34 99 4.8 8.0 0.00 0.00 0.00 48 1017.9
20260901204711 33 95 4.8 9.7 0.00 0.00 0.00 49 1018.2
20260901204212 33 70 8.0 9.7 0.00 0.00 0.00 51 1017.9
20260901203712 33 71 4.8 11.3 0.00 0.00 0.00 44 1018.6
20260901203212 34 68 8.0 11.3 0.00 0.00 0.00 50 1018.6
20260901202712 34 88 3.2 8.0 0.00 0.00 0.00 51 1018.2
20260901202212 34 94 4.8 12.9 0.00 0.00 0.00 49 1018.6
20260901201713 34 98 8.0 12.9 0.00 0.00 0.00 50 1018.2
20260901201213 35 74 4.8 8.0 0.00 0.00 0.00 51 1018.6
20260901200713 34 76 6.4 8.0 0.00 0.00 0.00 47 1018.6
20260901200212 34 92 4.8 12.9 0.00 0.00 0.00 49 1018.9
20260901195712 33 43 1.6 12.9 0.00 0.00 0.00 48 1018.6
20260901195211 33 38 8.0 12.9 0.00 0.00 0.00 52 1018.6
20260901194713 33 85 6.4 12.9 0.00 0.00 0.00 51 1018.6
20260901194212 33 151 6.4 6.4 0.00 0.00 0.00 54 1018.6
20260901193712 33 263 6.4 8.0 0.00 0.00 0.00 50 1018.6
20260901193212 33 292 4.8 8.0 0.00 0.00 0.00 48 1018.9
20260901192713 33 144 6.4 11.3 0.00 0.00 0.00 50 1018.9
20260901192212 34 71 6.4 11.3 0.00 0.00 0.00 49 1018.9
20260901191712 35 92 8.0 8.0 0.00 0.00 0.00 49 1019.3
20260901191213 34 93 3.2 8.0 0.00 0.00 0.00 50 1019.3
20260901190712 34 111 3.2 8.0 0.00 0.00 0.00 51 1019.3
20260901190212 34 78 6.4 8.0 0.00 0.00 0.00 52 1019.3
20260901185712 33 92 4.8 9.7 0.00 0.00 0.00 53 1019.3
20260901185211 33 83 6.4 9.7 0.00 0.00 0.00 54 1019.3
20260901184711 34 86 6.4 9.7 0.00 0.00 0.00 52 1019.6
20260901184212 34 86 3.2 9.7 0.00 0.00 0.00 53 1019.3
20260901183712 33 75 3.2 6.4 0.00 0.00 0.00 51 1019.6
20260901183212 33 189 3.2 8.0 0.00 0.00 0.00 50 1019.6
20260901182712 33 153 0.0 8.0 0.00 0.00 0.00 51 1019.3
20260901182212 33 17 0.0 9.7 0.00 0.00 0.00 55 1019.6
20260901181711 33 82 3.2 9.7 0.00 0.00 0.00 52 1019.6
20260901181211 33 256 4.8 6.4 0.00 0.00 0.00 51 1019.6
20260901180712 33 115 3.2 6.4 0.00 0.00 0.00 51 1019.6
20260901180211 33 140 0.0 6.4 0.00 0.00 0.00 51 1019.6
20260901175712 34 214 4.8 11.3 0.00 0.00 0.00 48 1020.0
20260901175211 33 84 1.6 11.3 0.00 0.00 0.00 49 1020.0
20260901174711 33 99 4.8 9.7 0.00 0.00 0.00 53 1020.0
20260901174211 32 149 4.8 9.7 0.00 0.00 0.00 54 1020.0
20260901173712 33 87 8.0 9.7 0.00 0.00 0.00 53 1020.0
20260901173213 33 84 4.8 9.7 0.00 0.00 0.00 55 1020.0
20260901172711 32 100 4.8 14.5 0.00 0.00 0.00 56 1020.3
20260901172212 32 94 6.4 14.5 0.00 0.00 0.00 56 1020.3
20260901171712 32 66 4.8 9.7 0.00 0.00 0.00 55 1020.3
20260901171212 32 82 4.8 8.0 0.00 0.00 0.00 54 1020.3
20260901170712 32 94 3.2 8.0 0.00 0.00 0.00 55 1020.7
20260901170211 32 111 3.2 6.4 0.00 0.00 0.00 57 1020.7
20260901165712 32 136 4.8 8.0 0.00 0.00 0.00 55 1020.7
20260901165212 32 188 3.2 8.0 0.00 0.00 0.00 53 1020.7
20260901164712 32 257 1.6 6.4 0.00 0.00 0.00 55 1021.0
20260901164212 31 225 0.0 6.4 0.00 0.00 0.00 59 1020.7
20260901163711 31 267 4.8 9.7 0.00 0.00 0.00 60 1020.7
20260901163212 31 263 4.8 11.3 0.00 0.00 0.00 59 1020.7
20260901162712 32 257 6.4 11.3 0.00 0.00 0.00 56 1020.7
20260901162211 32 260 8.0 9.7 0.00 0.00 0.00 60 1021.0
20260901161714 32 73 3.2 9.7 0.00 0.00 0.00 60 1021.0
20260901161212 31 180 1.6 11.3 0.00 0.00 0.00 62 1021.0
20260901160715 32 301 9.7 11.3 0.00 0.00 0.00 60 1020.7
20260901160212 32 223 1.6 6.4 0.00 0.00 0.00 61 1020.7
20260901155712 31 89 0.0 6.4 0.00 0.00 0.00 60 1021.0
20260901155211 31 151 1.6 6.4 0.00 0.00 0.00 62 1021.0
20260901154712 32 83 0.0 8.0 0.00 0.00 0.00 60 1020.7
20260901154212 32 281 6.4 8.0 0.00 0.00 0.00 60 1021.0
20260901153712 31 110 0.0 8.0 0.00 0.00 0.00 62 1021.0
20260901153212 32 156 0.0 8.0 0.00 0.00 0.00 62 1021.0
20260901152712 32 3 4.8 6.4 0.00 0.00 0.00 59 1021.0
20260901152212 31 204 0.0 6.4 0.00 0.00 0.00 61 1021.0
20260901151711 32 71 6.4 6.4 0.00 0.00 0.00 64 1021.0
20260901151212 32 315 1.6 6.4 0.00 0.00 0.00 62 1021.0
20260901150712 31 131 0.0 4.8 0.00 0.00 0.00 63 1021.0
20260901150212 31 141 1.6 6.4 0.00 0.00 0.00 63 1021.0
20260901145712 32 162 0.0 6.4 0.00 0.00 0.00 60 1021.0
20260901145211 31 205 0.0 6.4 0.00 0.00 0.00 63 1020.7
20260901144712 31 113 0.0 6.4 0.00 0.00 0.00 66 1020.7
20260901144211 30 204 0.0 6.4 0.00 0.00 0.00 67 1020.7
20260901143712 30 282 4.8 6.4 0.00 0.00 0.00 66 1021.0
20260901143211 31 307 4.8 6.4 0.00 0.00 0.00 71 1020.7
20260901142712 30 202 0.0 3.2 0.00 0.00 0.00 71 1021.0
20260901142212 30 100 0.0 4.8 0.00 0.00 0.00 71 1020.7
20260901141712 31 320 0.0 4.8 0.00 0.00 0.00 69 1020.7